TimeEST,TemperatureF,Dew PointF,Humidity,Sea Level PressureIn,VisibilityMPH,Wind Direction,Wind SpeedMPH,Gust SpeedMPH,PrecipitationIn,Events,Conditions,WindDirDegrees,DateUTC
12:53 AM,19.0,10.9,71,30.49,10.0,SSW,8.1,-,N/A,,Clear,210,2013-11-25 05:53:00
1:53 AM,19.0,10.9,71,30.46,10.0,SSW,8.1,-,N/A,,Clear,210,2013-11-25 06:53:00
2:53 AM,19.0,10.9,71,30.45,10.0,SSW,4.6,-,N/A,,Clear,210,2013-11-25 07:53:00
3:53 AM,17.1,10.0,74,30.45,10.0,SSW,3.5,-,N/A,,Clear,200,2013-11-25 08:53:00
4:53 AM,18.0,10.9,74,30.43,10.0,SSW,5.8,-,N/A,,Clear,200,2013-11-25 09:53:00
5:53 AM,19.0,12.0,74,30.40,10.0,South,8.1,-,N/A,,Clear,190,2013-11-25 10:53:00
6:53 AM,19.9,12.9,74,30.38,10.0,South,9.2,-,N/A,,Clear,190,2013-11-25 11:53:00
7:53 AM,21.9,12.9,68,30.35,10.0,SSW,11.5,-,N/A,,Clear,200,2013-11-25 12:53:00
8:53 AM,24.1,14.0,65,30.35,10.0,SSW,10.4,-,N/A,,Partly Cloudy,210,2013-11-25 13:53:00
9:53 AM,26.1,16.0,66,30.33,10.0,SSW,12.7,19.6,N/A,,Clear,210,2013-11-25 14:53:00
10:53 AM,28.0,15.1,58,30.30,10.0,SSW,17.3,25.3,N/A,,Clear,210,2013-11-25 15:53:00
11:53 AM,28.9,15.1,56,30.28,10.0,SW,13.8,24.2,N/A,,Overcast,220,2013-11-25 16:53:00
12:53 PM,30.0,15.1,54,30.24,10.0,SSW,16.1,23.0,N/A,,Overcast,210,2013-11-25 17:53:00
1:53 PM,30.9,15.1,52,30.22,10.0,SW,18.4,24.2,N/A,,Overcast,220,2013-11-25 18:53:00
2:53 PM,32.0,12.9,45,30.20,10.0,SSW,16.1,23.0,N/A,,Overcast,210,2013-11-25 19:53:00
3:53 PM,30.9,15.1,52,30.20,8.0,SW,16.1,25.3,0.00,Snow,Light Snow,220,2013-11-25 20:53:00
4:53 PM,32.0,15.1,50,30.19,10.0,SSW,18.4,24.2,0.00,,Overcast,210,2013-11-25 21:53:00
5:53 PM,30.9,17.1,57,30.18,10.0,SSW,13.8,23.0,N/A,,Overcast,210,2013-11-25 22:53:00
6:53 PM,30.9,17.1,57,30.18,10.0,SW,11.5,21.9,N/A,,Overcast,220,2013-11-25 23:53:00
7:53 PM,32.0,16.0,52,30.17,10.0,SW,10.4,-,N/A,,Overcast,220,2013-11-26 00:53:00
8:53 PM,32.0,16.0,52,30.17,10.0,SW,10.4,19.6,N/A,,Overcast,230,2013-11-26 01:53:00
9:53 PM,30.9,21.0,67,30.18,7.0,Variable,6.9,20.7,0.00,Snow,Light Snow,0,2013-11-26 02:53:00
10:53 PM,30.9,19.9,64,30.18,10.0,SW,6.9,-,0.00,,Overcast,220,2013-11-26 03:53:00
11:53 PM,30.9,21.9,69,30.17,10.0,SW,9.2,-,N/A,,Overcast,230,2013-11-26 04:53:00